METEOR 2-9

导读 | 星芒AI

METEOR 2-9 是俄罗斯一颗气象卫星,属于 METEOR 2 系列,于 1988 年发射。该卫星主要用于气象观测,搭载多种遥感仪器,能够收集云层、地表温度和大气参数等数据。它运行在近地轨道,为天气预报和环境监测提供支持。尽管已服役多年,METEOR 2-9 在其生命周期内为俄罗斯及国际气象系统提供了重要数据。

基本信息
目录编号:
13718
目录名称:
METEOR 2-9
国际标识:
1982-116A
轨道中心:
EARTH
卫星名称:
METEOR 2-9
卫星全名:
--
卫星状态:
在轨 (已飞行15660 天)
发射日期:
1982-12-14 UTC
国别 :
俄罗斯(独联体) (CIS)
星等 :
--
轨道信息
数据来源 国际轨道数据
星历时间: 2025-10-28T19:31:34+0800
20小时前
查看轨道信息
半长轴: 7217.396km
偏心率: 0.005218
轨道倾角: 81.252°
近地点辐角 263.108°
升交点赤经 214.841°
平近点角 96.416°
近地点: 801.6km
远地点: 876.922km
周期: 101.702分钟
每日圈数: 14.158982
详细信息
使用方式:
暂无
2D轨道图
3D轨道图
轨道高度分析图
轨道倾角分析图
轨道综合分析图
查看轨道综合分析图